Weather History for Billings, MT

Change the Weather History Date:

Sunday, December 9, 2012

  Actual Average Record
Temperature  
Mean Temperature 14 °F 27 °F  
Max Temperature 23 °F 35 °F 69 °F (1957)
Min Temperature 5 °F 19 °F -21 °F (1977)
Degree Days  
Heating Degree Days 51 38  
Month to date heating degree days 245 333  
Since 1 July heating degree days 1627 1961  
Cooling Degree Days 0 0  
Month to date cooling degree days 0 0  
Year to date cooling degree days 958 636  
Moisture  
Dew Point 8 °F    
Average Humidity 73    
Maximum Humidity 88    
Minimum Humidity 57    
Precipitation  
Precipitation T in 0.02 in 0.40 in (1970)
Month to date precipitation 0.07 0.16  
Year to date precipitation 6.93 13.32  
Snow  
Snow T in 0.30 in 4.00 in (1970)
Month to date snowfall 0.9 2.3  
Since 1 July snowfall 12.5 14.0  
Snow Depth T in    
Sea Level Pressure  
Sea Level Pressure 30.30 in    
Wind  
Wind Speed 14 mph (SW)    
Max Wind Speed 24 mph    
Max Gust Speed 30 mph    
Visibility 10 miles    
Events Snow    
T = Trace of Precipitation, MM = Missing Value Source: NWS Daily Summary

Daily Weather History Graph

Daily Weather History Graph

Search for Another Location

Airport:

Trip Planner

Search our weather history database for the weather conditions in past years. The results will help you decide how hot, cold, wet, or windy it might be!

Date:

Astronomy

Dec. 09, 2012 Rise Set
Actual Time 7:43 AM MST 4:29 PM MST
Civil Twilight 7:09 AM MST 5:03 PM MST
Nautical Twilight 6:32 AM MST 5:41 PM MST
Astronomical Twilight 5:55 AM MST 6:17 PM MST
Moon 3:10 AM MST (12/9) 1:46 PM MST (12/9)
Length of Visible Light 9h 54m
Length of Day
8h 45m
Waning Crescent, 18% of the Moon is Illuminated
Dec 9
Waning Crescent
Dec 13
New
Dec 19
First Quarter
Dec 28
Full
Jan 4
Last Quarter

Hourly Weather History & Observations

Time (MST) Temp. Windchill Dew Point Humidity Pressure Visibility Wind Dir Wind Speed Gust Speed Precip Events Conditions
12:36 AM 12.2 °F - 8.6 °F 85% 30.22 in 9.0 mi Calm Calm - 0.00 in Snow Light Snow
12:53 AM 12.9 °F 5.2 °F 9.0 °F 84% 30.39 in 8.0 mi SE 4.6 mph - 0.00 in Snow Light Snow
1:53 AM 12.0 °F 4.1 °F 8.1 °F 84% 30.40 in 9.0 mi SSE 4.6 mph - 0.00 in   Overcast
2:53 AM 12.0 °F 5.9 °F 8.1 °F 84% 30.42 in 10.0 mi South 3.5 mph - N/A   Overcast
3:53 AM 12.0 °F 1.5 °F 7.0 °F 80% 30.43 in 10.0 mi SSE 6.9 mph - N/A   Overcast
4:53 AM 10.9 °F 0.2 °F 7.0 °F 84% 30.43 in 10.0 mi South 6.9 mph - N/A   Overcast
5:53 AM 10.9 °F 2.9 °F 6.1 °F 81% 30.45 in 10.0 mi South 4.6 mph - N/A   Overcast
6:53 AM 6.1 °F - 3.0 °F 87% 30.48 in 10.0 mi Calm Calm - N/A   Clear
7:53 AM 7.0 °F -3.3 °F 3.9 °F 87% 30.49 in 10.0 mi SW 5.8 mph - N/A   Clear
8:53 AM 6.1 °F -12.2 °F 3.0 °F 87% 30.50 in 10.0 mi SW 16.1 mph - N/A   Clear
9:53 AM 8.1 °F -9.0 °F 3.0 °F 80% 30.49 in 10.0 mi SW 15.0 mph - N/A   Clear
10:53 AM 10.9 °F -7.9 °F 3.9 °F 73% 30.46 in 10.0 mi SW 20.7 mph 26.5 mph N/A   Clear
11:53 AM 14.0 °F -2.5 °F 6.1 °F 71% 30.40 in 10.0 mi SW 17.3 mph - N/A   Clear
12:53 PM 19.0 °F 3.6 °F 10.0 °F 68% 30.36 in 10.0 mi WSW 18.4 mph 25.3 mph N/A   Clear
1:53 PM 21.0 °F 6.6 °F 10.0 °F 63% 30.30 in 10.0 mi WSW 17.3 mph - N/A   Clear
2:53 PM 19.9 °F 4.3 °F 9.0 °F 62% 30.28 in 10.0 mi WSW 19.6 mph 27.6 mph N/A   Clear
3:53 PM 19.0 °F 2.4 °F 9.0 °F 65% 30.25 in 10.0 mi WSW 21.9 mph - N/A   Clear
4:53 PM 18.0 °F 2.2 °F 8.1 °F 65% 30.21 in 10.0 mi WSW 18.4 mph - N/A   Partly Cloudy
5:53 PM 19.0 °F 3.2 °F 8.1 °F 62% 30.15 in 10.0 mi WSW 19.6 mph - N/A   Partly Cloudy
6:53 PM 19.0 °F 4.5 °F 8.1 °F 62% 30.14 in 10.0 mi WSW 16.1 mph - N/A   Mostly Cloudy
7:53 PM 21.0 °F 6.6 °F 9.0 °F 60% 30.12 in 10.0 mi WSW 17.3 mph 26.5 mph N/A   Mostly Cloudy
8:53 PM 21.0 °F 6.6 °F 9.0 °F 60% 30.08 in 10.0 mi WSW 17.3 mph - N/A   Overcast
9:53 PM 21.9 °F 7.8 °F 9.0 °F 58% 30.06 in 10.0 mi WSW 17.3 mph 26.5 mph N/A   Overcast
10:53 PM 21.9 °F 6.9 °F 10.0 °F 60% 30.04 in 10.0 mi WSW 19.6 mph - N/A   Overcast
11:53 PM 23.0 °F 7.6 °F 10.0 °F 58% 30.00 in 10.0 mi WSW 21.9 mph - N/A   Overcast